Location: Barcelona
(41.3830°N, 2.1830°E)
Time: 11:27:24
(UTC+02:00)

Hubble Space Telescope - Pass Details

Date: 16 June 2019
Orbit: 536 x 540 km, 28.5° (Epoch: 18 July)

Event Time Altitude Azimuth Distance (km) Brightness Sun altitude
Exits shadow 04:30:35 11° 159° (SSE) 1,685 3.0 -15.6°
Drops below altitude 10° 04:31:20 10° 149° (SSE) 1,776 3.2 -15.5°
Sets 04:34:52 0° 118° (ESE) 2,667 4.5 -15.1°
